When you browse on this site, cookies collect data to enhance your experience and personalize the content and advertising you see.
Visit our Privacy Policy to learn more. By continuing to use the site, you agree to this use of cookies and data.

Stündliche Wetter Brisbane

Heute, 10 August, Montag

Zeit Temperatur Niederschläge Wind Luftdruck Luftfeuchtigkeit
00:00 +10°C° 0 mm 3 m/S 758 mmHg 65%
01:00 +10°C° 0 mm 3 m/S 758 mmHg 68%
02:00 +10°C° 0 mm 3 m/S 757 mmHg 70%
03:00 +10°C° 0 mm 4 m/S 757 mmHg 72%
04:00 +10°C° 0 mm 4 m/S 757 mmHg 73%
05:00 +10°C° 0 mm 4 m/S 757 mmHg 73%
06:00 +10°C° 0 mm 4 m/S 757 mmHg 73%
07:00 +10°C° 0 mm 4 m/S 758 mmHg 74%
08:00 +12°C° 0 mm 5 m/S 758 mmHg 65%
09:00 +13°C° 0 mm 5 m/S 758 mmHg 56%
10:00 +15°C° 0 mm 6 m/S 757 mmHg 48%
11:00 +16°C° 0 mm 6 m/S 757 mmHg 46%
12:00 +17°C° 0 mm 6 m/S 756 mmHg 44%
13:00 +17°C° 0 mm 7 m/S 756 mmHg 41%
14:00 +17°C° 0 mm 6 m/S 756 mmHg 43%
15:00 +17°C° 0 mm 6 m/S 756 mmHg 44%
16:00 +17°C° 0 mm 6 m/S 757 mmHg 45%
17:00 +15°C° 0 mm 5 m/S 757 mmHg 50%
18:00 +14°C° 0 mm 5 m/S 758 mmHg 56%
19:00 +12°C° 0 mm 5 m/S 758 mmHg 61%
20:00 +12°C° 0 mm 4 m/S 759 mmHg 65%
21:00 +11°C° 0 mm 4 m/S 759 mmHg 68%
22:00 +11°C° 0 mm 3 m/S 760 mmHg 72%
23:00 +11°C° 0 mm 3 m/S 760 mmHg 75%

Morgen, 11 August, Dienstag

Zeit Temperatur Niederschläge Wind Luftdruck Luftfeuchtigkeit
00:00 +10°C° 0 mm 3 m/S 760 mmHg 78%
01:00 +10°C° 0 mm 3 m/S 760 mmHg 81%
02:00 +10°C° 0 mm 3 m/S 760 mmHg 80%
03:00 +10°C° 0 mm 3 m/S 760 mmHg 80%
04:00 +10°C° 0 mm 3 m/S 760 mmHg 80%
05:00 +10°C° 0 mm 3 m/S 760 mmHg 78%
06:00 +10°C° 0 mm 3 m/S 761 mmHg 77%
07:00 +10°C° 0 mm 2 m/S 761 mmHg 75%
08:00 +14°C° 0 mm 2 m/S 761 mmHg 67%
09:00 +16°C° 0 mm 2 m/S 761 mmHg 59%
10:00 +19°C° 0 mm 2 m/S 762 mmHg 52%
11:00 +20°C° 0 mm 2 m/S 761 mmHg 50%
12:00 +21°C° 0 mm 2 m/S 761 mmHg 49%
13:00 +23°C° 0 mm 2 m/S 760 mmHg 47%
14:00 +23°C° 0 mm 2 m/S 760 mmHg 50%
15:00 +21°C° 0 mm 2 m/S 760 mmHg 53%
16:00 +21°C° 0 mm 3 m/S 760 mmHg 56%
17:00 +19°C° 0 mm 3 m/S 761 mmHg 62%
18:00 +18°C° 0 mm 3 m/S 761 mmHg 69%
19:00 +16°C° 0 mm 3 m/S 762 mmHg 75%
20:00 +16°C° 0 mm 2 m/S 762 mmHg 77%
21:00 +15°C° 0 mm 2 m/S 762 mmHg 79%
22:00 +15°C° 0 mm 2 m/S 763 mmHg 81%
23:00 +14°C° 0 mm 2 m/S 762 mmHg 82%

übermorgen, 12 August, Mittwoch

Zeit Temperatur Niederschläge Wind Luftdruck Luftfeuchtigkeit
00:00 +14°C° 0 mm 2 m/S 762 mmHg 83%
01:00 +14°C° 0 mm 1 m/S 762 mmHg 85%
02:00 +13°C° 0 mm 1 m/S 762 mmHg 85%
03:00 +13°C° 0 mm 1 m/S 762 mmHg 86%
04:00 +13°C° 0 mm 1 m/S 762 mmHg 86%
05:00 +13°C° 0 mm 1 m/S 762 mmHg 86%
06:00 +13°C° 0 mm 1 m/S 763 mmHg 85%
07:00 +13°C° 0 mm 1 m/S 763 mmHg 85%
08:00 +16°C° 0 mm 1 m/S 763 mmHg 76%
09:00 +19°C° 0 mm 1 m/S 763 mmHg 67%
10:00 +20°C° 0 mm 0 m/S 764 mmHg 58%
11:00 +23°C° 0 mm 1 m/S 763 mmHg 54%
12:00 +24°C° 0 mm 1 m/S 762 mmHg 50%
13:00 +25°C° 0 mm 2 m/S 761 mmHg 46%
14:00 +24°C° 0 mm 2 m/S 760 mmHg 50%
15:00 +23°C° 0 mm 2 m/S 760 mmHg 53%
16:00 +22°C° 0 mm 3 m/S 760 mmHg 57%
17:00 +20°C° 0 mm 3 m/S 760 mmHg 65%
18:00 +19°C° 0 mm 3 m/S 761 mmHg 73%
19:00 +17°C° 0 mm 3 m/S 761 mmHg 81%
20:00 +17°C° 0 mm 3 m/S 761 mmHg 84%
21:00 +16°C° 0 mm 3 m/S 761 mmHg 86%
22:00 +16°C° 0 mm 2 m/S 762 mmHg 88%
23:00 +16°C° 0 mm 2 m/S 761 mmHg 89%

13 August, Donnerstag

Zeit Temperatur Niederschläge Wind Luftdruck Luftfeuchtigkeit
00:00 +15°C° 0 mm 2 m/S 761 mmHg 90%
01:00 +15°C° 0 mm 2 m/S 761 mmHg 91%
02:00 +15°C° 0 mm 1 m/S 761 mmHg 91%
03:00 +14°C° 0 mm 1 m/S 761 mmHg 91%
04:00 +14°C° 0 mm 1 m/S 761 mmHg 92%
05:00 +14°C° 0 mm 1 m/S 761 mmHg 91%
06:00 +14°C° 0 mm 1 m/S 762 mmHg 90%
07:00 +14°C° 0 mm 1 m/S 762 mmHg 89%
08:00 +18°C° 0 mm 1 m/S 762 mmHg 78%
09:00 +20°C° 0 mm 1 m/S 762 mmHg 67%
10:00 +22°C° 0 mm 1 m/S 762 mmHg 56%
11:00 +24°C° 0 mm 2 m/S 761 mmHg 50%
12:00 +26°C° 0 mm 2 m/S 761 mmHg 45%
13:00 +28°C° 0 mm 2 m/S 760 mmHg 39%
14:00 +27°C° 0 mm 3 m/S 760 mmHg 43%
15:00 +27°C° 0 mm 3 m/S 759 mmHg 47%
16:00 +26°C° 0 mm 3 m/S 759 mmHg 51%
17:00 +24°C° 0 mm 3 m/S 759 mmHg 58%
18:00 +22°C° 0 mm 3 m/S 760 mmHg 66%
19:00 +20°C° 0 mm 3 m/S 760 mmHg 73%
20:00 +20°C° 0 mm 3 m/S 760 mmHg 73%
21:00 +19°C° 0 mm 2 m/S 760 mmHg 74%
22:00 +18°C° 0 mm 2 m/S 761 mmHg 75%
23:00 +18°C° 0 mm 2 m/S 760 mmHg 75%

14 August, Freitag

Zeit Temperatur Niederschläge Wind Luftdruck Luftfeuchtigkeit
00:00 +19°C° 0 mm 1 m/S 760 mmHg 76%
01:00 +19°C° 0 mm 1 m/S 760 mmHg 76%
02:00 +19°C° 0 mm 1 m/S 760 mmHg 75%
03:00 +19°C° 0 mm 1 m/S 760 mmHg 75%
04:00 +19°C° 0 mm 1 m/S 760 mmHg 74%
05:00 +19°C° 0 mm 1 m/S 760 mmHg 74%
06:00 +19°C° 0 mm 1 m/S 761 mmHg 74%
07:00 +19°C° 0 mm 1 m/S 761 mmHg 74%
08:00 +20°C° 0 mm 2 m/S 761 mmHg 66%
09:00 +24°C° 0 mm 2 m/S 761 mmHg 58%
10:00 +26°C° 0 mm 2 m/S 761 mmHg 50%
11:00 +27°C° 0 mm 3 m/S 760 mmHg 46%
12:00 +29°C° 0 mm 3 m/S 759 mmHg 41%
13:00 +30°C° 0 mm 4 m/S 759 mmHg 36%
14:00 +29°C° 0 mm 4 m/S 759 mmHg 41%
15:00 +28°C° 0 mm 4 m/S 758 mmHg 45%
16:00 +27°C° 0 mm 5 m/S 758 mmHg 50%
17:00 +25°C° 0 mm 4 m/S 759 mmHg 55%
18:00 +23°C° 0 mm 4 m/S 759 mmHg 61%
19:00 +22°C° 0 mm 4 m/S 760 mmHg 66%
20:00 +21°C° 0 mm 4 m/S 760 mmHg 69%
21:00 +20°C° 0 mm 3 m/S 760 mmHg 72%
22:00 +20°C° 0 mm 3 m/S 761 mmHg 75%
23:00 +19°C° 0.3 mm 2 m/S 760 mmHg 78%

15 August, Samstag

Zeit Temperatur Niederschläge Wind Luftdruck Luftfeuchtigkeit
00:00 +19°C° 0.3 mm 2 m/S 760 mmHg 81%
01:00 +18°C° 0.3 mm 2 m/S 760 mmHg 83%
02:00 +18°C° 0.2 mm 2 m/S 760 mmHg 83%
03:00 +18°C° 0.2 mm 2 m/S 760 mmHg 84%
04:00 +18°C° 0.2 mm 2 m/S 759 mmHg 84%
05:00 +18°C° 0 mm 2 m/S 760 mmHg 84%
06:00 +18°C° 0 mm 2 m/S 760 mmHg 85%
07:00 +18°C° 0 mm 2 m/S 760 mmHg 85%
08:00 +19°C° 0 mm 2 m/S 760 mmHg 79%
09:00 +21°C° 0 mm 2 m/S 760 mmHg 72%
10:00 +22°C° 0 mm 3 m/S 760 mmHg 65%
11:00 +24°C° 0 mm 3 m/S 760 mmHg 60%
12:00 +25°C° 0 mm 3 m/S 759 mmHg 54%
13:00 +26°C° 0 mm 3 m/S 758 mmHg 49%
14:00 +25°C° 0.6 mm 3 m/S 758 mmHg 55%
15:00 +24°C° 0.6 mm 3 m/S 758 mmHg 60%
16:00 +22°C° 0.6 mm 3 m/S 757 mmHg 66%
17:00 +21°C° 0.5 mm 3 m/S 757 mmHg 71%
18:00 +20°C° 0.5 mm 3 m/S 757 mmHg 76%
19:00 +19°C° 0.5 mm 3 m/S 758 mmHg 80%
20:00 +19°C° 0.9 mm 3 m/S 758 mmHg 83%
21:00 +18°C° 0.9 mm 3 m/S 758 mmHg 86%
22:00 +18°C° 0.9 mm 3 m/S 758 mmHg 88%
23:00 +17°C° 0.5 mm 3 m/S 757 mmHg 89%
Mehr zeigen